TimeEST,TemperatureF,Dew PointF,Humidity,Sea Level PressureIn,VisibilityMPH,Wind Direction,Wind SpeedMPH,Gust SpeedMPH,PrecipitationIn,Events,Conditions,WindDirDegrees,DateUTC
12:15 AM,26.6,19.4,74,30.42,10.0,Calm,Calm,-,N/A,,Clear,0,2013-01-08 05:15:00
12:35 AM,26.6,19.4,74,30.42,10.0,SSE,4.6,-,N/A,,Clear,150,2013-01-08 05:35:00
12:55 AM,24.8,21.2,86,30.41,10.0,Calm,Calm,-,N/A,,Clear,0,2013-01-08 05:55:00
1:15 AM,24.8,21.2,86,30.41,10.0,Calm,Calm,-,N/A,,Clear,0,2013-01-08 06:15:00
1:55 AM,26.6,21.2,80,30.41,10.0,South,4.6,-,N/A,,Clear,180,2013-01-08 06:55:00
2:15 AM,28.4,21.2,74,30.41,10.0,South,3.5,-,N/A,,Clear,190,2013-01-08 07:15:00
2:35 AM,32.0,23.0,69,30.41,10.0,South,4.6,-,N/A,,Clear,190,2013-01-08 07:35:00
2:55 AM,32.0,23.0,69,30.40,10.0,South,3.5,-,N/A,,Clear,190,2013-01-08 07:55:00
3:15 AM,32.0,23.0,69,30.40,10.0,Calm,Calm,-,N/A,,Clear,0,2013-01-08 08:15:00
3:35 AM,32.0,23.0,69,30.40,10.0,SSW,3.5,-,N/A,,Clear,210,2013-01-08 08:35:00
3:55 AM,32.0,23.0,69,-9999,10.0,North,-9999.0,-,N/A,,Clear,0,2013-01-08 08:55:00
4:15 AM,32.0,24.8,75,30.38,10.0,South,4.6,-,N/A,,Clear,190,2013-01-08 09:15:00
4:35 AM,32.0,24.8,75,30.39,10.0,Calm,Calm,-,N/A,,Clear,0,2013-01-08 09:35:00
4:55 AM,33.8,24.8,70,30.40,10.0,WSW,4.6,-,N/A,,Clear,240,2013-01-08 09:55:00
5:15 AM,32.0,24.8,75,30.39,10.0,SW,3.5,-,N/A,,Clear,230,2013-01-08 10:15:00
5:35 AM,33.8,24.8,70,30.40,10.0,SW,3.5,-,N/A,,Clear,230,2013-01-08 10:35:00
5:55 AM,32.0,24.8,75,30.39,10.0,Calm,Calm,-,N/A,,Clear,0,2013-01-08 10:55:00
6:15 AM,32.0,24.8,75,30.39,10.0,South,3.5,-,N/A,,Clear,190,2013-01-08 11:15:00
6:35 AM,30.2,24.8,80,30.39,10.0,South,3.5,-,N/A,,Clear,190,2013-01-08 11:35:00
6:55 AM,30.2,23.0,75,30.41,10.0,Calm,Calm,-,N/A,,Clear,0,2013-01-08 11:55:00
7:15 AM,28.4,23.0,80,30.42,10.0,Calm,Calm,-,N/A,,Clear,0,2013-01-08 12:15:00
7:55 AM,26.6,24.8,93,30.44,10.0,Calm,Calm,-,N/A,,Clear,0,2013-01-08 12:55:00
8:15 AM,28.4,24.8,86,30.43,10.0,Calm,Calm,-,N/A,,Clear,0,2013-01-08 13:15:00
8:35 AM,30.2,26.6,86,30.43,10.0,Calm,Calm,-,N/A,,Clear,0,2013-01-08 13:35:00
9:15 AM,35.6,28.4,75,30.43,10.0,WSW,3.5,-,N/A,,Clear,250,2013-01-08 14:15:00
9:35 AM,37.4,30.2,75,30.43,10.0,SW,3.5,-,N/A,,Clear,230,2013-01-08 14:35:00
9:55 AM,39.2,28.4,65,30.43,10.0,WSW,6.9,-,N/A,,Clear,250,2013-01-08 14:55:00
10:15 AM,41.0,30.2,65,30.42,10.0,WSW,6.9,-,N/A,,Clear,240,2013-01-08 15:15:00
10:35 AM,42.8,30.2,61,30.43,10.0,SW,8.1,-,N/A,,Clear,230,2013-01-08 15:35:00
10:55 AM,42.8,30.2,61,30.43,10.0,WSW,6.9,-,N/A,,Clear,250,2013-01-08 15:55:00
11:15 AM,44.6,30.2,57,30.42,10.0,WSW,5.8,-,N/A,,Clear,240,2013-01-08 16:15:00
11:35 AM,44.6,30.2,57,30.41,10.0,SW,5.8,-,N/A,,Clear,220,2013-01-08 16:35:00
11:55 AM,44.6,30.2,57,30.41,10.0,West,5.8,-,N/A,,Clear,260,2013-01-08 16:55:00
12:15 PM,46.4,30.2,53,30.40,10.0,SW,5.8,-,N/A,,Clear,220,2013-01-08 17:15:00
12:35 PM,48.2,28.4,46,30.40,10.0,WSW,8.1,-,N/A,,Clear,240,2013-01-08 17:35:00
12:55 PM,48.2,28.4,46,30.40,10.0,West,8.1,-,N/A,,Clear,260,2013-01-08 17:55:00
1:15 PM,48.2,28.4,46,30.39,10.0,SSW,4.6,-,N/A,,Clear,210,2013-01-08 18:15:00
1:35 PM,50.0,28.4,43,30.38,10.0,WNW,4.6,-,N/A,,Clear,300,2013-01-08 18:35:00
1:55 PM,51.8,28.4,41,30.37,10.0,Calm,Calm,-,N/A,,Clear,0,2013-01-08 18:55:00
2:15 PM,51.8,28.4,41,30.37,10.0,SW,3.5,-,N/A,,Clear,230,2013-01-08 19:15:00
2:55 PM,51.8,28.4,41,30.39,10.0,South,5.8,-,N/A,,Clear,180,2013-01-08 19:55:00
3:15 PM,51.8,26.6,38,30.38,10.0,Calm,Calm,-,N/A,,Clear,0,2013-01-08 20:15:00
3:35 PM,51.8,28.4,41,30.40,10.0,SW,5.8,-,N/A,,Clear,230,2013-01-08 20:35:00
3:55 PM,51.8,26.6,38,30.40,10.0,SW,3.5,-,N/A,,Clear,220,2013-01-08 20:55:00
4:15 PM,50.0,26.6,40,30.39,10.0,SSE,4.6,-,N/A,,Clear,150,2013-01-08 21:15:00
4:35 PM,48.2,26.6,43,30.39,10.0,SSE,4.6,-,N/A,,Clear,150,2013-01-08 21:35:00
4:55 PM,48.2,26.6,43,30.39,10.0,Calm,Calm,-,N/A,,Clear,0,2013-01-08 21:55:00
5:15 PM,46.4,26.6,46,30.40,10.0,Calm,Calm,-,N/A,,Clear,0,2013-01-08 22:15:00
5:35 PM,44.6,26.6,49,30.40,10.0,SE,3.5,-,N/A,,Clear,140,2013-01-08 22:35:00
5:55 PM,44.6,28.4,53,30.40,10.0,SE,3.5,-,N/A,,Clear,130,2013-01-08 22:55:00
6:15 PM,41.0,26.6,57,30.40,10.0,Calm,Calm,-,N/A,,Clear,0,2013-01-08 23:15:00
6:35 PM,37.4,26.6,65,30.41,10.0,Calm,Calm,-,N/A,,Clear,0,2013-01-08 23:35:00
6:55 PM,39.2,28.4,65,30.41,10.0,Calm,Calm,-,N/A,,Clear,0,2013-01-08 23:55:00
7:15 PM,39.2,28.4,65,30.41,10.0,Calm,Calm,-,N/A,,Clear,0,2013-01-09 00:15:00
7:35 PM,39.2,28.4,65,30.41,10.0,SSE,4.6,-,N/A,,Clear,150,2013-01-09 00:35:00
7:55 PM,37.4,28.4,70,30.40,10.0,SSE,4.6,-,N/A,,Clear,150,2013-01-09 00:55:00
8:15 PM,37.4,28.4,70,30.39,10.0,SE,5.8,-,N/A,,Clear,140,2013-01-09 01:15:00
8:55 PM,37.4,28.4,70,30.40,10.0,South,3.5,-,N/A,,Clear,180,2013-01-09 01:55:00
9:15 PM,37.4,28.4,70,30.41,10.0,SSW,3.5,-,N/A,,Clear,200,2013-01-09 02:15:00
9:35 PM,41.0,30.2,65,30.42,10.0,SSW,3.5,-,N/A,,Clear,200,2013-01-09 02:35:00
9:55 PM,41.0,30.2,65,30.41,10.0,SW,3.5,-,N/A,,Clear,220,2013-01-09 02:55:00
10:15 PM,41.0,30.2,65,30.40,10.0,SSW,3.5,-,N/A,,Clear,210,2013-01-09 03:15:00
10:35 PM,41.0,30.2,65,30.40,10.0,Calm,Calm,-,N/A,,Clear,0,2013-01-09 03:35:00
11:15 PM,35.6,28.4,75,30.40,10.0,Calm,Calm,-,N/A,,Clear,0,2013-01-09 04:15:00
11:35 PM,33.8,30.2,87,30.40,10.0,Calm,Calm,-,N/A,,Clear,0,2013-01-09 04:35:00